Regional Weather Roundup
Issued by NWS

Home | Current Version | Previous Version | Text Only | Print | Product List | Glossary Off
Versions: 1 2 3 4 5 6 7 8 9 10 11 12 13 14 15 16 17 18 19 20 21 22 23 24 25 26 27 28 29 30 31 32 33 34 35 36 37 38 39 40 41 42 43 44 45 46 47 48 49 50

373
ASUS45 KBOU 270510
RWRCO

WEATHER ROUNDUP FOR COLORADO
NATIONAL WEATHER SERVICE DENVER/BOULDER CO
1100 PM MDT MON SEP 26 2016

NOTE: "FAIR" INDICATES FEW OR NO CLOUDS BELOW 12000 FEET WITH NO
SIGNIFICANT WEATHER AND/OR OBSTRUCTIONS TO VISIBILITY.

COZ001>005-013-030-031-270600-
...NORTHWEST COLORADO...

CITY           SKY/WX    TMP DP  RH WIND       PRES   REMARKS
CRAIG          FAIR      42  37  82 CALM      30.37S
HAYDEN         FAIR      48  30  49 E5        30.38S
MEEKER         FAIR      48  37  65 E5        30.38S
MOUNT WERNER   NOT AVBL
STEAMBOAT SPGS FAIR      49  33  55 E3        30.40S
WALDEN           N/A     37  30  75 SE8       30.48S
$$

COZ006>008-011-270600-
...WEST CENTRAL VALLEYS...

CITY           SKY/WX    TMP DP  RH WIND       PRES   REMARKS
GRAND JUNCTION FAIR      58  39  49 E5        30.25S
MONTROSE       FAIR      53  38  56 SE12      30.34S
EAGLE          FAIR      50  32  50 E3        30.40S
RIFLE          FAIR      53  40  61 SE6       30.31S
DELTA          FAIR      59  39  48 NE7       30.30
NUCLA          FAIR      54  34  47 E9        30.37S
$$

COZ017>023-064>068-270600-
...SOUTHWEST COLORADO...

CITY           SKY/WX    TMP DP  RH WIND       PRES   REMARKS
DURANGO        FAIR      48  36  63 N6        30.38R
CORTEZ         FAIR      50  39  66 E7        30.32S
PAGOSA SPRINGS FAIR      50  36  60 SW3       30.44R
TELLURIDE      FAIR      48  36  63 SE3       30.53S
WOLF CREEK PAS FAIR      41  28  60 MISG      30.69S
$$

COZ009-010-012-014-032>034-037-058>063-270600-
...CENTRAL COLORADO...

CITY           SKY/WX    TMP DP  RH WIND       PRES   REMARKS
ASPEN          FAIR      45  33  63 S7        30.44R
BUENA VISTA    FAIR      39  23  52 W5        30.47S
COPPER MTN     FAIR      45  23  42 CALM      30.69S
BERTHOUD PASS  FAIR      36  23  60 N8        30.70F
COTTONWOOD PAS FAIR      52  21  30 SW7       30.57F
GUNNISON       FAIR      46  34  62 N5        30.44R
KREMMLING      FAIR      41  27  56 CALM      30.44S
LEADVILLE      FAIR      41  22  46 NE6       30.55F
MONARCH PASS   FAIR      37  23  56 E9        30.78S
SALIDA         FAIR      51  28  41 SW7       30.52S
SUNLIGHT       FAIR      45  32  61 NE5       30.64S
WILKERSON PASS FAIR      41  23  48 SW7       30.67S
$$

COZ069>075-270600-
...SAN LUIS VALLEY/SANGRE DE CRISTO MOUNTAINS...

CITY           SKY/WX    TMP DP  RH WIND       PRES   REMARKS
ALAMOSA        FAIR      46  32  58 SE8       30.41R
LA VETA PASS   FAIR      43  27  52 MISG      30.58R
SAGUACHE       NOT AVBL
$$

COZ035-036-038>040-270600-
...NORTHERN COLORADO FRONT RANGE...

CITY           SKY/WX    TMP DP  RH WIND       PRES   REMARKS
DENVER INTL AP FAIR      57  29  34 VRB7      30.33R
DMNS CITY PARK   N/A     53  42  67 E7        30.32S
AURORA         PTCLDY    55  31  40 NW3       30.33F
FRONT RANGE AP NOT AVBL
ERIE MUNI ARPT FAIR      50  33  52 CALM      30.32S
BOULDER MUN AP FAIR      55  34  44 CALM      30.32S
CENTENNIAL     FAIR      59  31  34 S10       30.34F
BROOMFIELD     NOT AVBL
FORT COLLINS   FAIR      54  37  54 N5        30.33S
LONGMONT       FAIR      55  39  56 N8        30.34R
$$

COZ041-046-047-076>085-087-088-270600-
...PIKES PEAK/PALMER DIVIDE AND SOUTHERN FOOTHILLS...

CITY           SKY/WX    TMP DP  RH WIND       PRES   REMARKS
COLO. SPRINGS  FAIR      50  30  46 NE8       30.38S
A. F. ACADEMY  FAIR      45  28  52 N10       30.39S
SCHRIEVER AFB  NOT AVBL
ELLICOTT       NOT AVBL
FALCON         FAIR      46  30  53 CALM      30.42S
FORT CARSON    FAIR      52  31  44 NW8       30.35S
LIMON          FAIR      43  28  55 N8        30.33F
MONUMENT HILL  FAIR      41  28  60 CALM      30.43S
TRINIDAD       FAIR      53  33  46 W10       30.33S
$$

COZ042>045-048>051-090-091-270600-
...NORTHEAST COLORADO...

CITY           SKY/WX    TMP DP  RH WIND       PRES   REMARKS
GREELEY ARPT   FAIR      54  39  58 NW3       30.32S
AKRON          FAIR      56  37  49 SE3       30.29F
BURLINGTON     FAIR      52  41  66 CALM      30.27F
WRAY           NOT AVBL
STERLING       FAIR      50  37  62 NW3       30.26S
HOLYOKE        FAIR      52  41  66 NW5       30.25S
FORT MORGAN    FAIR      56  37  48 NE5       30.30F
$$

COZ086-089-092>099-270600-
...SOUTHEAST COLORADO...

CITY           SKY/WX    TMP DP  RH WIND       PRES   REMARKS
PUEBLO         FAIR      55  29  36 N7        30.29S
LA JUNTA       FAIR      63  33  32 CALM      30.26S
LAMAR          FAIR      53  35  50 W3        30.22S
SPRINGFIELD    NOT AVBL
$$




USA.gov is the U.S. government's official web portal to all federal, state and local government web resources and services.